FW4741 Weather Reports


Display with metric or nautical units.
time (UTC)temp
F
wind
direction
speed
MPH
gust
MPH
rain 1hr
in
rain 24hr
in
rain mn
in
humidity
%
barometer
mb
20260831151602 65 77 2.0 6.0 0.00 0.00 0.00 77 1025.0
20260831151103 64 77 2.0 6.0 0.00 0.00 0.00 77 1025.0
20260831145602 63 77 2.0 6.0 0.00 0.00 0.00 82 1025.0
20260831145102 62 77 2.0 6.0 0.00 0.00 0.00 81 1025.0
20260831144603 62 77 2.0 6.0 0.00 0.00 0.00 82 1025.0
20260831144103 62 77 2.0 6.0 0.00 0.00 0.00 82 1025.0
20260831143602 62 77 2.0 6.0 0.00 0.00 0.00 82 1025.0
20260831143103 62 77 2.0 6.0 0.00 0.00 0.00 82 1024.9
20260831142602 62 77 2.0 6.0 0.00 0.00 0.00 83 1024.9
20260831142103 62 77 2.0 6.0 0.00 0.00 0.00 83 1024.9
20260831141603 61 77 2.0 6.0 0.00 0.00 0.00 84 1024.8
20260831140602 60 77 2.0 6.0 0.00 0.00 0.00 85 1024.9
20260831135603 59 77 2.0 6.0 0.00 0.00 0.00 88 1024.8
20260831135103 58 77 2.0 6.0 0.00 0.00 0.00 90 1024.8
20260831134603 58 77 2.0 6.0 0.00 0.00 0.00 92 1024.8
20260831133103 57 77 2.0 6.0 0.00 0.00 0.00 92 1024.8
20260831132602 57 77 2.0 6.0 0.00 0.00 0.00 92 1024.8
20260831132102 57 77 2.0 6.0 0.00 0.00 0.00 92 1024.8
20260831125603 56 77 2.0 6.0 0.00 0.00 0.00 91 1024.7
20260831125102 56 77 2.0 6.0 0.00 0.00 0.00 92 1024.6
20260831124603 56 77 2.0 6.0 0.00 0.00 0.00 92 1024.6
20260831124102 56 77 2.0 6.0 0.00 0.00 0.00 91 1024.7
20260831123602 56 77 2.0 6.0 0.00 0.00 0.00 91 1024.7
20260831123103 56 77 2.0 6.0 0.00 0.00 0.00 91 1024.8
20260831122103 56 77 2.0 6.0 0.00 0.00 0.00 91 1024.8
20260831121603 56 77 2.0 6.0 0.00 0.00 0.00 92 1024.7
20260831120602 56 77 2.0 6.0 0.00 0.00 0.00 93 1024.5
20260831115603 56 77 2.0 6.0 0.00 0.00 0.00 93 1024.4
20260831115103 56 77 2.0 6.0 0.00 0.00 0.00 93 1024.5
20260831114603 56 77 2.0 6.0 0.00 0.00 0.00 93 1024.5
20260831114103 56 77 2.0 6.0 0.00 0.00 0.00 93 1024.5
20260831113103 56 77 2.0 6.0 0.00 0.00 0.00 93 1024.6
20260831112103 56 77 2.0 6.0 0.00 0.00 0.00 94 1024.6
20260831111602 56 77 2.0 6.0 0.00 0.00 0.00 94 1024.6
20260831111102 56 77 2.0 6.0 0.00 0.00 0.00 94 1024.6
20260831110603 55 77 2.0 6.0 0.00 0.00 0.00 94 1024.6
20260831105103 55 77 2.0 6.0 0.00 0.00 0.00 93 1024.6
20260831104603 55 77 2.0 6.0 0.00 0.00 0.00 93 1024.6
20260831104103 55 77 2.0 6.0 0.00 0.00 0.00 93 1024.6
20260831103603 55 77 2.0 6.0 0.00 0.00 0.00 93 1024.5
20260831103103 56 77 2.0 6.0 0.00 0.00 0.00 92 1024.5
20260831102602 56 77 2.0 6.0 0.00 0.00 0.00 92 1024.4
20260831102103 56 77 2.0 6.0 0.00 0.00 0.00 92 1024.4
20260831101103 56 77 2.0 6.0 0.00 0.00 0.00 93 1024.4
20260831100603 56 77 2.0 6.0 0.00 0.00 0.00 93 1024.4
20260831100103 56 77 2.0 6.0 0.00 0.00 0.00 93 1024.4
20260831095603 55 77 2.0 6.0 0.00 0.00 0.00 93 1024.4
20260831095103 55 77 2.0 6.0 0.00 0.00 0.00 93 1024.4
20260831094603 55 77 2.0 6.0 0.00 0.00 0.00 93 1024.3
20260831094103 55 77 2.0 6.0 0.00 0.00 0.00 93 1024.3
20260831093603 55 77 2.0 6.0 0.00 0.00 0.00 93 1024.3
20260831093103 55 77 2.0 6.0 0.00 0.00 0.00 93 1024.3
20260831092603 55 77 2.0 6.0 0.00 0.00 0.00 93 1024.3
20260831092102 56 77 2.0 6.0 0.00 0.00 0.00 93 1024.2
20260831091603 56 77 2.0 6.0 0.00 0.00 0.00 93 1024.3
20260831091103 56 77 2.0 6.0 0.00 0.00 0.00 93 1024.3
20260831090603 56 77 2.0 6.0 0.00 0.00 0.00 93 1024.2
20260831085602 56 77 2.0 6.0 0.00 0.00 0.00 94 1024.1
20260831085103 56 77 2.0 6.0 0.00 0.00 0.00 93 1024.2
20260831084102 56 77 2.0 6.0 0.00 0.00 0.00 93 1024.2
20260831083603 56 77 2.0 6.0 0.00 0.00 0.00 93 1024.2
20260831083103 56 77 2.0 6.0 0.00 0.00 0.00 93 1024.2
20260831082103 56 77 2.0 6.0 0.00 0.00 0.00 93 1024.2
20260831081603 56 77 2.0 6.0 0.00 0.00 0.00 94 1024.2
20260831081102 56 77 2.0 6.0 0.00 0.00 0.00 94 1024.2
20260831080603 56 77 2.0 6.0 0.00 0.00 0.00 93 1024.2
20260831075603 56 77 2.0 6.0 0.00 0.00 0.00 93 1024.3
20260831075103 56 77 2.0 6.0 0.00 0.00 0.00 93 1024.3
20260831074603 56 77 2.0 6.0 0.00 0.00 0.00 93 1024.3
20260831074103 56 77 2.0 6.0 0.00 0.00 0.00 93 1024.3
20260831073603 57 77 2.0 6.0 0.00 0.00 0.00 93 1024.3
20260831072602 57 77 2.0 6.0 0.00 0.00 0.00 92 1024.3
20260831071603 57 77 2.0 6.0 0.00 0.00 0.00 93 1024.3
20260831070603 57 77 2.0 6.0 0.00 0.00 0.00 93 1024.3
20260831065603 57 77 2.0 6.0 0.00 0.00 0.00 93 1024.4
20260831065102 57 77 2.0 6.0 0.00 0.00 0.00 92 1024.4
20260831064603 57 77 2.0 6.0 0.00 0.00 0.00 92 1024.4
20260831064103 58 77 2.0 6.0 0.00 0.00 0.00 92 1024.3
20260831063603 58 77 2.0 6.0 0.00 0.00 0.00 92 1024.3
20260831063103 58 77 2.0 6.0 0.00 0.00 0.00 92 1024.3
20260831062603 58 77 2.0 6.0 0.00 0.00 0.00 92 1024.3
20260831061602 58 77 2.0 6.0 0.00 0.00 0.00 92 1024.3
20260831061103 58 77 2.0 6.0 0.00 0.00 0.00 92 1024.3
20260831060603 58 77 2.0 6.0 0.00 0.00 0.00 92 1024.2
20260831055602 58 77 2.0 6.0 0.00 0.00 0.00 92 1024.2
20260831055103 59 77 2.0 6.0 0.00 0.00 0.00 92 1024.2
20260831054103 59 77 2.0 6.0 0.00 0.00 0.00 92 1024.3
20260831053603 59 77 2.0 6.0 0.00 0.00 0.00 92 1024.2
20260831053103 59 77 2.0 6.0 0.00 0.00 0.00 92 1024.2
20260831052602 59 77 2.0 6.0 0.00 0.00 0.00 91 1024.2
20260831052103 59 77 2.0 6.0 0.00 0.00 0.00 91 1024.3
20260831051603 60 77 2.0 6.0 0.00 0.00 0.00 90 1024.4
20260831051103 60 77 2.0 6.0 0.00 0.00 0.00 90 1024.3
20260831050602 60 77 2.0 6.0 0.00 0.00 0.00 89 1024.3
20260831050103 60 77 2.0 6.0 0.00 0.00 0.00 89 1024.3
20260831045103 60 77 2.0 6.0 0.00 0.00 0.00 90 1024.3
20260831044103 60 77 2.0 6.0 0.00 0.00 0.00 91 1024.1
20260831042603 60 77 2.0 6.0 0.00 0.00 0.00 93 1024.2
20260831042102 60 77 2.0 6.0 0.00 0.00 0.00 93 1024.3
20260831041603 60 77 2.0 6.0 0.00 0.00 0.00 93 1024.3
20260831041103 60 77 2.0 6.0 0.00 0.00 0.00 93 1024.3
20260831040603 60 77 2.0 6.0 0.00 0.00 0.00 93 1024.4
20260831035603 60 77 2.0 6.0 0.00 0.00 0.00 93 1024.5
20260831035103 60 77 2.0 6.0 0.00 0.00 0.00 92 1024.5
20260831034602 60 77 2.0 6.0 0.00 0.00 0.00 92 1024.6
20260831034102 60 77 2.0 6.0 0.00 0.00 0.00 92 1024.7
20260831033603 60 77 2.0 6.0 0.00 0.00 0.00 92 1024.6
20260831032603 60 77 2.0 6.0 0.00 0.00 0.00 92 1024.7
20260831032104 60 77 2.0 6.0 0.00 0.00 0.00 92 1024.7
20260831031603 60 77 2.0 6.0 0.00 0.00 0.00 92 1024.8
20260831031103 60 77 2.0 6.0 0.00 0.00 0.00 92 1024.8
20260831030603 60 77 2.0 6.0 0.00 0.00 0.00 92 1024.7
20260831025603 60 77 2.0 6.0 0.00 0.00 0.00 91 1024.6
20260831024603 61 77 2.0 6.0 0.00 0.00 0.00 91 1024.7
20260831023604 61 77 2.0 6.0 0.00 0.00 0.00 91 1024.6
20260831023103 61 77 2.0 6.0 0.00 0.00 0.00 91 1024.4
20260831022603 61 77 2.0 6.0 0.00 0.00 0.00 91 1024.3
20260831022102 61 77 2.0 6.0 0.00 0.00 0.00 90 1024.2
20260831021603 61 77 2.0 6.0 0.00 0.00 0.00 90 1024.2
20260831021103 61 77 2.0 6.0 0.00 0.00 0.00 88 1024.0
20260831020103 61 77 2.0 6.0 0.00 0.00 0.00 89 1023.8
20260831014603 61 77 2.0 6.0 0.00 0.00 0.00 91 1023.5
20260831013602 61 77 2.0 6.0 0.00 0.00 0.00 89 1023.4
20260831013102 61 77 2.0 6.0 0.00 0.00 0.00 88 1023.6
20260831012603 61 77 2.0 6.0 0.00 0.00 0.00 88 1023.6
20260831012103 61 77 2.0 6.0 0.00 0.00 0.00 87 1023.6
20260831011603 61 77 2.0 6.0 0.00 0.00 0.00 87 1023.6
20260831011103 61 77 2.0 6.0 0.00 0.00 0.00 87 1023.7
20260831010603 62 77 2.0 6.0 0.00 0.00 0.00 87 1023.7
20260831005103 65 77 2.0 6.0 0.00 0.00 0.00 80 1023.5
20260831004602 65 77 2.0 6.0 0.00 0.00 0.00 76 1023.6
20260831004103 65 77 2.0 6.0 0.00 0.00 0.00 72 1023.5
20260831003603 66 77 2.0 6.0 0.00 0.00 0.00 72 1023.5
20260831002602 67 77 2.0 6.0 0.00 0.00 0.00 69 1023.4
20260831002103 68 77 2.0 6.0 0.00 0.00 0.00 64 1023.4
20260831001602 68 77 2.0 6.0 0.00 0.00 0.00 65 1023.2
20260831001102 69 77 2.0 6.0 0.00 0.00 0.00 62 1023.2
20260831000603 70 77 2.0 6.0 0.00 0.00 0.00 60 1023.1
20260830235602 72 77 2.0 6.0 0.00 0.00 0.00 58 1023.0
20260830235103 73 77 2.0 6.0 0.00 0.00 0.00 58 1022.9
20260830234102 74 77 2.0 6.0 0.00 0.00 0.00 59 1022.5
20260830233603 74 77 2.0 6.0 0.00 0.00 0.00 59 1022.3
20260830233103 75 77 2.0 6.0 0.00 0.00 0.00 57 1022.3
20260830232603 75 77 2.0 6.0 0.00 0.00 0.00 57 1022.3
20260830232103 75 77 2.0 6.0 0.00 0.00 0.00 57 1022.2
20260830231603 75 77 2.0 6.0 0.00 0.00 0.00 58 1022.2
20260830231103 75 77 2.0 6.0 0.00 0.00 0.00 58 1022.0
20260830230602 75 77 2.0 6.0 0.00 0.00 0.00 57 1021.9
20260830230103 75 77 2.0 6.0 0.00 0.00 0.00 57 1022.0
20260830225603 75 77 2.0 6.0 0.00 0.00 0.00 57 1022.0
20260830225103 76 77 2.0 6.0 0.00 0.00 0.00 58 1022.0
20260830224103 76 77 2.0 6.0 0.00 0.00 0.00 58 1021.9
20260830223603 76 77 2.0 6.0 0.00 0.00 0.00 58 1021.9
20260830223103 76 77 2.0 6.0 0.00 0.00 0.00 58 1021.9
20260830222603 75 77 2.0 6.0 0.00 0.00 0.00 61 1021.8
20260830222103 75 77 2.0 6.0 0.00 0.00 0.00 61 1021.7
20260830221602 75 77 2.0 6.0 0.00 0.00 0.00 62 1021.8
20260830221102 75 77 2.0 6.0 0.00 0.00 0.00 60 1021.8
20260830215602 75 77 2.0 6.0 0.00 0.00 0.00 60 1021.7
20260830214103 75 77 2.0 6.0 0.00 0.00 0.00 62 1021.9
20260830213602 76 77 2.0 6.0 0.00 0.00 0.00 61 1021.9
20260830213103 77 77 2.0 6.0 0.00 0.00 0.00 60 1021.9
20260830212603 78 77 2.0 6.0 0.00 0.00 0.00 58 1021.9
20260830212102 78 77 2.0 6.0 0.00 0.00 0.00 57 1021.9
20260830211603 78 77 2.0 6.0 0.00 0.00 0.00 58 1021.9
20260830211102 78 77 2.0 6.0 0.00 0.00 0.00 58 1022.0
20260830210603 78 77 2.0 6.0 0.00 0.00 0.00 57 1021.9
20260830205603 77 77 2.0 6.0 0.00 0.00 0.00 59 1022.1
20260830205102 76 77 2.0 6.0 0.00 0.00 0.00 60 1022.2
20260830203603 77 77 2.0 6.0 0.00 0.00 0.00 60 1022.3
20260830203103 77 77 2.0 6.0 0.00 0.00 0.00 59 1022.3
20260830202603 78 77 2.0 6.0 0.00 0.00 0.00 57 1022.3
20260830202103 78 77 2.0 6.0 0.00 0.00 0.00 58 1022.3
20260830201603 78 77 2.0 6.0 0.00 0.00 0.00 58 1022.3
20260830201103 78 77 2.0 6.0 0.00 0.00 0.00 58 1022.4
20260830200603 77 77 2.0 6.0 0.00 0.00 0.00 58 1022.5
20260830200103 77 77 2.0 6.0 0.00 0.00 0.00 58 1022.6
20260830195603 77 77 2.0 6.0 0.00 0.00 0.00 59 1022.7
20260830195102 77 77 2.0 6.0 0.00 0.00 0.00 58 1022.7
20260830194603 77 77 2.0 6.0 0.00 0.00 0.00 59 1022.7
20260830194103 77 77 2.0 6.0 0.00 0.00 0.00 59 1022.8
20260830193602 77 77 2.0 6.0 0.00 0.00 0.00 59 1022.9
20260830193103 77 77 2.0 6.0 0.00 0.00 0.00 59 1023.0
20260830192603 77 77 2.0 6.0 0.00 0.00 0.00 58 1023.0
20260830192103 77 77 2.0 6.0 0.00 0.00 0.00 59 1023.1
20260830191603 77 77 2.0 6.0 0.00 0.00 0.00 58 1023.2
20260830185603 76 77 2.0 6.0 0.00 0.00 0.00 58 1023.3
20260830185104 76 77 2.0 6.0 0.00 0.00 0.00 58 1023.4
20260830184603 76 77 2.0 6.0 0.00 0.00 0.00 58 1023.5
20260830183603 77 77 2.0 6.0 0.00 0.00 0.00 56 1023.5
20260830183103 76 77 2.0 6.0 0.00 0.00 0.00 55 1023.5
20260830182602 76 77 2.0 6.0 0.00 0.00 0.00 55 1023.6
20260830182103 76 77 2.0 6.0 0.00 0.00 0.00 54 1023.6
20260830181603 76 77 2.0 6.0 0.00 0.00 0.00 55 1023.7
20260830181103 76 77 2.0 6.0 0.00 0.00 0.00 54 1023.6
20260830180603 76 77 2.0 6.0 0.00 0.00 0.00 55 1023.6
20260830175603 76 77 2.0 6.0 0.00 0.00 0.00 55 1023.6
20260830174603 75 77 2.0 6.0 0.00 0.00 0.00 57 1023.7
20260830174103 75 77 2.0 6.0 0.00 0.00 0.00 56 1023.7
20260830173602 75 77 2.0 6.0 0.00 0.00 0.00 57 1023.8
20260830173103 75 77 2.0 6.0 0.00 0.00 0.00 58 1023.8
20260830172102 75 77 2.0 6.0 0.00 0.00 0.00 58 1023.9
20260830171603 75 77 2.0 6.0 0.00 0.00 0.00 57 1023.8
20260830171103 75 77 2.0 6.0 0.00 0.00 0.00 58 1023.8
20260830170603 74 77 2.0 6.0 0.00 0.00 0.00 57 1023.8
20260830165603 75 77 2.0 6.0 0.00 0.00 0.00 58 1023.9
20260830165102 75 77 2.0 6.0 0.00 0.00 0.00 55 1023.9
20260830164603 75 77 2.0 6.0 0.00 0.00 0.00 56 1023.9
20260830164103 74 77 2.0 6.0 0.00 0.00 0.00 56 1023.9
20260830163603 74 77 2.0 6.0 0.00 0.00 0.00 57 1024.0
20260830163103 74 77 2.0 6.0 0.00 0.00 0.00 56 1024.0
20260830162602 74 77 2.0 6.0 0.00 0.00 0.00 59 1024.0
20260830162103 74 77 2.0 6.0 0.00 0.00 0.00 61 1024.1
20260830161603 73 77 2.0 6.0 0.00 0.00 0.00 62 1024.1
20260830161103 73 77 2.0 6.0 0.00 0.00 0.00 64 1024.2
20260830160603 73 77 2.0 6.0 0.00 0.00 0.00 63 1024.2
20260830155602 71 77 2.0 6.0 0.00 0.00 0.00 62 1024.3
20260830155102 71 77 2.0 6.0 0.00 0.00 0.00 63 1024.3
20260830154603 71 77 2.0 6.0 0.00 0.00 0.00 66 1024.4
20260830154102 71 77 2.0 6.0 0.00 0.00 0.00 69 1024.5
20260830153103 70 77 2.0 6.0 0.00 0.00 0.00 68 1024.6
20260830152602 69 77 2.0 6.0 0.00 0.00 0.00 69 1024.6